Weather History for Moab, UT

Change the Weather History Date:

Sunday, July 28, 2013

  Actual Average Record
Temperature  
Mean Temperature 78 °F 81 °F  
Max Temperature 92 °F 96 °F 106 °F (1960)
Min Temperature 63 °F 66 °F 52 °F (1986)
Degree Days  
Heating Degree Days 0 0  
Month to date heating degree days 0 0  
Since 1 June heating degree days 0 17  
Since 1 July heating degree days 0 0  
Cooling Degree Days 13 16  
Month to date cooling degree days 550 427  
Year to date cooling degree days 1031 746  
Since 1 June cooling degree days 951 682  
Growing Degree Days 26 (Base 50)    
Moisture  
Dew Point 55 °F    
Average Humidity 45    
Maximum Humidity 73    
Minimum Humidity 17    
Precipitation  
Precipitation 0.77 in 0.03 in 0.77 in (2013)
Month to date precipitation 0.95 0.74  
Year to date precipitation 2.67 4.44  
Sea Level Pressure  
Sea Level Pressure 29.80 in    
Wind  
Wind Speed 10 mph (NE)    
Max Wind Speed 26 mph    
Max Gust Speed 31 mph    
Visibility 8 miles    
Events Rain , Thunderstorm    
T = Trace of Precipitation, MM = Missing Value Source: NWS Daily Summary

Daily Weather History Graph

Daily Weather History Graph

Search for Another Location

Airport:

Trip Planner

Search our weather history database for the weather conditions in past years. The results will help you decide how hot, cold, wet, or windy it might be!

Date:

Astronomy

Jul. 28, 2013 Rise Set
Actual Time 6:17 AM MDT 8:33 PM MDT
Civil Twilight 5:47 AM MDT 9:03 PM MDT
Nautical Twilight 5:10 AM MDT 9:39 PM MDT
Astronomical Twilight 4:29 AM MDT 10:20 PM MDT
Moon No Moon Rise 12:57 PM MDT
Length of Visible Light 15h 16m
Length of Day
14h 16m
Waning Gibbous, 60% of the Moon is Illuminated
Jul 28
Waning Gibbous
Jul 29
Last Quarter
Aug 6
New
Aug 14
First Quarter
Aug 20
Full

Hourly Weather History & Observations

Time (MDT) Temp. Heat Index Dew Point Humidity Pressure Visibility Wind Dir Wind Speed Gust Speed Precip Events Conditions
12:53 AM 75.0 °F - 54.0 °F 48% 29.76 in 10.0 mi WSW 6.9 mph - 0.00 in   Mostly Cloudy
1:53 AM 73.9 °F - 53.1 °F 48% 29.76 in 10.0 mi Calm Calm - N/A   Mostly Cloudy
2:53 AM 71.1 °F - 59.0 °F 66% 29.77 in 10.0 mi NE 13.8 mph - N/A   Overcast
3:53 AM 70.0 °F - 59.0 °F 68% 29.76 in 10.0 mi NE 10.4 mph - N/A   Overcast
4:53 AM 70.0 °F - 57.9 °F 65% 29.77 in 10.0 mi East 6.9 mph - N/A   Overcast
5:53 AM 69.1 °F - 57.9 °F 68% 29.79 in 10.0 mi East 5.8 mph - N/A   Overcast
6:53 AM 68.0 °F - 59.0 °F 73% 29.80 in 10.0 mi ENE 9.2 mph - 0.00 in   Overcast
7:53 AM 69.1 °F - 57.9 °F 68% 29.82 in 10.0 mi ENE 5.8 mph - N/A   Clear
8:53 AM 73.0 °F - 57.9 °F 59% 29.81 in 10.0 mi ENE 10.4 mph - N/A   Clear
11:53 AM 81.0 °F 80.5 °F 54.0 °F 39% 29.79 in 10.0 mi West 4.6 mph - N/A   Clear
12:53 PM 84.0 °F 82.6 °F 54.0 °F 35% 29.77 in 10.0 mi WSW 6.9 mph - N/A   Clear
1:53 PM 87.1 °F - 52.0 °F 30% 29.74 in 10.0 mi North 8.1 mph - N/A   Mostly Cloudy
2:53 PM 88.0 °F - 48.9 °F 26% 29.72 in 10.0 mi Variable 3.5 mph - N/A   Scattered Clouds
3:53 PM 88.0 °F - 46.9 °F 24% 29.69 in 10.0 mi Variable 4.6 mph - N/A   Clear
4:53 PM 89.1 °F - 45.0 °F 22% 29.66 in 10.0 mi SSE 5.8 mph - N/A   Clear
5:53 PM 89.1 °F - 39.9 °F 18% 29.67 in 10.0 mi NNW 3.5 mph - N/A   Clear
6:53 PM 86.0 °F - 48.9 °F 28% 29.68 in 10.0 mi ENE 18.4 mph - N/A   Partly Cloudy
7:53 PM 82.9 °F - 48.0 °F 29% 29.70 in 10.0 mi ENE 20.7 mph - N/A   Partly Cloudy
8:53 PM 73.9 °F - 57.9 °F 57% 29.75 in 6.0 mi ENE 15.0 mph - 0.04 in Rain Light Rain
9:01 PM 73.4 °F - 59.0 °F 61% 29.92 in 10.0 mi NE 16.1 mph 26.5 mph 0.01 in Rain , Thunderstorm Light Rain
9:18 PM 71.6 °F - 60.8 °F 69% 29.93 in 10.0 mi NE 21.9 mph - 0.01 in Rain , Thunderstorm Light Rain
9:53 PM 70.0 °F - 59.0 °F 68% 29.79 in 10.0 mi NE 15.0 mph - 0.01 in Thunderstorm Mostly Cloudy
10:26 PM 66.2 °F - 60.8 °F 83% 30.04 in 1.8 mi Calm Calm - 0.21 in Rain , Thunderstorm Heavy Thunderstorms and Rain
10:40 PM 64.4 °F - 59.0 °F 83% 30.06 in 0.8 mi WNW 4.6 mph - 0.52 in Rain , Thunderstorm Heavy Thunderstorms and Rain
10:48 PM 62.6 °F - 59.0 °F 88% 30.07 in 1.2 mi NNE 13.8 mph - 0.61 in Rain , Thunderstorm Heavy Thunderstorms and Rain
10:53 PM 63.0 °F - 59.0 °F 87% 29.91 in 2.0 mi NE 20.7 mph - 0.64 in Rain , Thunderstorm Heavy Thunderstorms and Rain